User: anonymous   Login
Location: Mentone
(34.5413°N, 85.5351°W)
Time: 04:41:11
(UTC-05:00)
Language:

Tiros 1 despin weight - Orbit

View from above orbital plane
View from above orbital plane
View from above satellite
View from above satellite

Ground track
Ground track

The orbit data is extracted from the following two-line orbital elements,

1 00115U 60002D   16213.14421326 -.00000040  00000-0  22652-4 0  9997
2 00115  48.1656 246.2214 0034205 126.1073 234.3014 14.82839109  2570
Epoch (UTC): 31 July 2016 03:27:40
Eccentricity: 0.0034205
inclination: 48.1656°
perigee height: 596 km
apogee height: 644 km
right ascension of ascending node: 246.2214°
argument of perigee: 126.1073°
revolutions per day: 14.82839109
mean anomaly at epoch: 234.3014°
orbit number at epoch: 257

The dashed part of the orbit path shows where the satellite is in the earth's shadow,  

DLR